Volver al catálogo

GALAXY 25

TELSTAR 5

ActivoComunicacionesGEO
NORAD 24812·PAYLOAD·🇺🇸 United States

Lanzado May 24, 1997 desde Baikonur Cosmodrome

Loading…

TLE

ActualizadoSource: Space-Track

Época: Sep 14, 2026, 15:29 UTC

1 24812U 97026A   26257.64570366  .00000021  00000-0  00000-0 0  9993
2 24812   7.6125  66.7620 0005901  65.6687 350.1460  0.99088289107112

Sigue GALAXY 25 en tiempo real con AllMySat

Download on the App Store